Araxos, Greece

9:37 PM EET on February 08, 2016 (GMT +0200)
Araxos Air Base

Weather History for LGRX - July, 2013

Change the Weather History Date:

Sunday, July 7, 2013

  Actual Average Record
Temperature  
Mean Temperature 80 °F -  
Max Temperature 93 °F 87 °F 100 °F (2000)
Min Temperature 66 °F 66 °F 60 °F (2007)
Cooling Degree Days 14    
Growing Degree Days 30 (Base 50)    
Moisture  
Dew Point 53 °F    
Average Humidity 37    
Maximum Humidity 73    
Minimum Humidity 23    
Precipitation  
Precipitation 0.00 in - - ()
Sea Level Pressure  
Sea Level Pressure 29.91 in    
Wind  
Wind Speed 5 mph ()    
Max Wind Speed 18 mph    
Max Gust Speed -    
Visibility 6.2 miles    
Events      
Averages and records for this station are not official NWS values.
T = Trace of Precipitation, MM = Missing Value Source: Averaged Metar Reports

Daily Weather History Graph

Daily Weather History Graph

Search for Another Location

Airport or City:

Trip Planner

Search our weather history database for the weather conditions in past years. The results will help you decide how hot, cold, wet, or windy it might be!

Date:

Astronomy

Jul. 07, 2013 Rise Set
Actual Time 6:18 AM EEST 9:00 PM EEST
Civil Twilight 5:46 AM EEST 9:31 PM EEST
Nautical Twilight 5:08 AM EEST 10:10 PM EEST
Astronomical Twilight 4:24 AM EEST 10:53 PM EEST
Moon 5:37 AM EEST (7/7) 8:12 PM EEST (7/7)
Length of Visible Light 15h 44m
Length of Day
14h 42m
Waning Crescent, 1% of the Moon is Illuminated
Jul 7
Waning Crescent
Jul 8
New
Jul 16
First Quarter
Jul 22
Full
Jul 29
Last Quarter

Hourly Weather History & Observations

Time (EEST) Temp. Heat Index Dew Point Humidity Pressure Visibility Wind Dir Wind Speed Gust Speed Precip Events Conditions
12:50 AM 73.4 °F - 57.2 °F 57% 29.92 in - Variable 3.5 mph - N/A   Clear
1:50 AM 71.6 °F - 59.0 °F 64% 29.92 in - Calm Calm - N/A   Clear
2:50 AM 71.6 °F - 59.0 °F 64% 29.92 in - Calm Calm - N/A   Clear
3:50 AM 69.8 °F - 57.2 °F 64% 29.89 in - Calm Calm - N/A   Clear
5:50 AM 66.2 °F - 57.2 °F 73% 29.89 in 6.2 mi Calm Calm - N/A   Partly Cloudy
6:20 AM 66.2 °F - 57.2 °F 73% 29.89 in 6.2 mi Calm Calm - N/A   Partly Cloudy
6:50 AM 68.0 °F - 57.2 °F 68% 29.89 in 6.2 mi Calm Calm - N/A   Partly Cloudy
7:50 AM 75.2 °F - 57.2 °F 53% 29.89 in - Calm Calm - N/A   Clear
8:20 AM 78.8 °F - 57.2 °F 47% 29.89 in - Variable 3.5 mph - N/A   Clear
8:50 AM 82.4 °F 82.0 °F 57.2 °F 42% 29.92 in - Variable 3.5 mph - N/A   Clear
9:20 AM 86.0 °F 84.2 °F 53.6 °F 33% 29.89 in - Variable 3.5 mph - N/A   Clear
9:50 AM 84.2 °F 82.8 °F 53.6 °F 35% 29.92 in - NE 6.9 mph - N/A   Clear
10:20 AM 86.0 °F 84.2 °F 53.6 °F 33% 29.92 in - NE 6.9 mph - N/A   Clear
10:50 AM 87.8 °F 85.7 °F 53.6 °F 31% 29.92 in - NE 6.9 mph - N/A   Clear
11:20 AM 87.8 °F 85.7 °F 53.6 °F 31% 29.92 in - NE 6.9 mph - N/A   Clear
11:50 AM 87.8 °F - 51.8 °F 29% 29.92 in - North 11.5 mph - N/A   Clear
12:20 PM 89.6 °F - 51.8 °F 27% 29.92 in - North 11.5 mph - N/A   Clear
12:50 PM 89.6 °F - 51.8 °F 27% 29.92 in - North 9.2 mph - N/A   Clear
1:20 PM 89.6 °F - 51.8 °F 27% 29.92 in - North 9.2 mph - N/A   Clear
1:50 PM 89.6 °F - 50.0 °F 26% 29.92 in - North 9.2 mph - N/A   Clear
2:20 PM 91.4 °F - 51.8 °F 26% 29.92 in - North 9.2 mph - N/A   Clear
2:50 PM 93.2 °F - 50.0 °F 23% 29.89 in - NNE 16.1 mph - N/A   Clear
3:20 PM 93.2 °F - 50.0 °F 23% 29.89 in - NNE 16.1 mph - N/A   Clear
3:50 PM 91.4 °F - 50.0 °F 24% 29.89 in - NE 16.1 mph - N/A   Clear
4:20 PM 93.2 °F - 50.0 °F 23% 29.89 in 6.2 mi NE 18.4 mph - N/A   Partly Cloudy
4:50 PM 93.2 °F - 50.0 °F 23% 29.89 in 6.2 mi NE 17.3 mph - N/A   Partly Cloudy
5:20 PM 93.2 °F - 50.0 °F 23% 29.89 in 6.2 mi NE 17.3 mph - N/A   Partly Cloudy
5:50 PM 91.4 °F - 50.0 °F 24% 29.89 in 6.2 mi NE 17.3 mph - N/A   Partly Cloudy
6:20 PM 91.4 °F - 50.0 °F 24% 29.89 in 6.2 mi NE 17.3 mph - N/A   Partly Cloudy
6:50 PM 91.4 °F - 50.0 °F 24% 29.89 in 6.2 mi ENE 11.5 mph - N/A   Scattered Clouds
7:20 PM 91.4 °F - 50.0 °F 24% 29.89 in 6.2 mi ENE 11.5 mph - N/A   Scattered Clouds
7:50 PM 89.6 °F - 50.0 °F 26% 29.89 in 6.2 mi East 6.9 mph - N/A   Scattered Clouds
8:20 PM 89.6 °F - 51.8 °F 27% 29.89 in 6.2 mi East 6.9 mph - N/A   Scattered Clouds
8:50 PM 87.8 °F 85.7 °F 53.6 °F 31% 29.89 in 6.2 mi Calm Calm - N/A   Scattered Clouds
9:50 PM 82.4 °F 81.4 °F 53.6 °F 37% 29.92 in 6.2 mi Calm Calm - N/A   Scattered Clouds
10:50 PM 80.6 °F 80.3 °F 53.6 °F 39% 29.95 in 6.2 mi Calm Calm - N/A   Partly Cloudy
11:50 PM 78.8 °F - 55.4 °F 44% 29.95 in - Calm Calm - N/A   Clear